Tracking 31027 objects as of 19-Jul-2025
HD Live streaming from Space Station
objects crossing your sky now

SL-8 R/B

Track SL-8 R/B now!
10-day predictions


NORAD ID: 4370
Int'l Code: 1970-028B
Perigee: 681.9 km
Apogee: 700.3 km
Inclination: 74.0 °
Period: 98.4 minutes
Semi major axis: 7062 km
RCS: 4.6155 m2 (large)
Launch date: April 11, 1970
Source: Commonwealth of Independent States (former USSR) (CIS)
Launch site: PLESETSK MISSILE AND SPACE COMPLEX (PKMTR)

Note: This is a ROCKET BODY
Your satellite tracking list
NOAA 16 DEB
Track 1 satellite(s)




NASA's NSSDC Master Catalog

Two Line Element Set (TLE):
1 04370U 70028B   25199.50212566  .00000496  00000-0  10298-3 0  9996
2 04370  74.0368 210.2177 0013031  93.8662 266.3995 14.62863688442660
Source of the keplerian elements: AFSPC